Overview Statistics Trail Chart Weather Telemetry Raw packets
 

This is the latest recevied weather packets stored in our database for station/object OK2JV-13. If no packets are shown the sender has not sent any weather packets the latest 10 day(s).

<< 3 4 5 6 7 8 9 >>
Time Temp. Humidity Pressure Rain* Wind** Luminosity Snow
1788601691 16.11° C 70% 1016.5 hPa - - - -
1788601087 16.11° C 71% 1016.6 hPa - - - -
1788600483 16.11° C 71% 1016.5 hPa - - - -
1788599881 16.11° C 73% 1016.3 hPa - - - -
1788599275 15.56° C 75% 1016.3 hPa - - - -
1788598671 15.56° C 78% 1016.2 hPa - - - -
1788598077 14.44° C 80% 1016.3 hPa - - - -
1788597464 13.89° C 84% 1016.3 hPa - - - -
1788596859 12.78° C 83% 1016.2 hPa - - - -
1788596255 12.78° C 85% 1016.1 hPa - - - -
1788595651 12.22° C 91% 1016 hPa - - - -
1788595047 12.22° C 91% 1015.8 hPa - - - -
1788594445 12.22° C 91% 1015.5 hPa - - - -
1788593838 12.22° C 91% 1015.7 hPa - - - -
1788593236 12.22° C 91% 1015.4 hPa - - - -
1788592630 11.67° C 90% 1015.5 hPa - - - -
1788592027 11.67° C 90% 1015.4 hPa - - - -
1788591423 11.67° C 89% 1015.3 hPa - - - -
1788590819 11.67° C 89% 1015.7 hPa - - - -
1788590215 12.22° C 89% 1015.8 hPa - - - -
1788589611 12.22° C 89% 1015.4 hPa - - - -
1788589006 12.22° C 87% 1015.1 hPa - - - -
1788588403 12.22° C 88% 1014.8 hPa - - - -
1788587799 12.78° C 84% 1015 hPa - - - -
1788587195 12.78° C 84% 1015 hPa - - - -

* Rain since midnight (hover to see other rain measurements)
** Current wind speed in m/s (hover to see current wind gust speed)